Zurück zum Katalog

DMSP 5D-2 F13 DEB

AktivSSO
NORAD 40580·DEBRIS·🇺🇸 United States

Gestartet Mar 24, 1995 von Vandenberg Space Force Base

Loading…

Nächste Überflüge (nächste 24 Stunden)

TLE

AktuellSource: Space-Track

Epoche: Sep 14, 2026, 13:35 UTC

1 40580U 95015EP  26257.56660534  .00002590  00000-0  93176-3 0  9999
2 40580  98.8242 293.9528 0013002  31.1653 329.0300 14.34603356592687

Verfolge DMSP 5D-2 F13 DEB in Echtzeit mit AllMySat

Download on the App Store